Regional Weather Roundup
Issued by NWS

Current Version | Previous Version | Text Only | Print | Product List | Glossary Off
Versions: 1 2 3 4 5 6 7 8 9 10 11 12 13 14 15 16 17 18 19 20 21 22 23 24 25 26 27 28 29 30 31 32 33 34 35 36 37 38 39 40 41 42 43 44 45 46 47 48 49 50

000
ASUS44 KMEG 260610
RWRTN
TENNESSEE HOURLY STATE WEATHER ROUNDUP
NATIONAL WEATHER SERVICE MEMPHIS TN
100 AM CDT SUN OCT 26 2014

TNZ002-004-019-021-049-052-054-088>092-260700-
WEST TENNESSEE

CITY           SKY/WX    TMP DP  RH WIND       PRES   REMARKS
MEMPHIS INTL   CLEAR     65  62  90 SW3       30.02S
NWS MEMPHIS      N/A     63 N/A N/A MISG        N/A
JACKSON        CLEAR     62  60  93 S3        30.01F
DYERSBURG        N/A     61  50  67 CALM      30.01S VSB 3/4
UNION CITY     CLOUDY    55  55 100 CALM      29.99F VSB 0
PARIS          MOCLDY    54  54 100 CALM      30.01S VSB 1/4
HUNTINGDON     MOCLDY    56  55  96 CALM      30.01F VSB<1/4
LEXINGTON      CLOUDY    55  55 100 CALM      30.01S VSB 1/2
SAVANNAH       CLEAR     55  55 100 CALM      30.03F
$$

TNZ008-025-027-028-033-062-065-066-260700-
NORTH MIDDLE TENNESSEE

CITY           SKY/WX    TMP DP  RH WIND       PRES   REMARKS
NASHVILLE      CLEAR     58  57  97 S5        30.02S FOG
CLARKSVILLE    FOG       55  54  96 CALM      30.00S VSB 1/4
SMYRNA         FOG       54  54 100 CALM      30.02F VSB<1/4
COOKEVILLE     MOCLDY    46  46 100 CALM      30.02S VSB 1/4
CROSSVILLE     CLEAR     55  52  89 CALM      30.05S FOG
$$

TNZ061-075-076-078-094-096-097-260700-
SOUTH MIDDLE TENNESSEE

CITY           SKY/WX    TMP DP  RH WIND       PRES   REMARKS
FAYETTEVILLE   CLEAR     59  57  94 MISG      30.04S
TULLAHOMA      MOCLDY    54  52  94 CALM      30.05S VSB 1/2
WINCHESTER     CLEAR     54  54 100 CALM      30.05S
MCMINNVILLE    CLOUDY    54  54 100 CALM      30.04S VSB 1/4
COLUMBIA       CLEAR    N/A N/A N/A CALM      30.01S
SHELBYVILLE      N/A     54  54 100 E3        30.04S
$$

TNZ017-018-042-046-047-260700-
NORTHEAST TENNESSEE

CITY           SKY/WX    TMP DP  RH WIND       PRES   REMARKS
TRI CITIES     PTCLDY    50  47  89 CALM      29.99S
ELIZABETHTON   CLOUDY    59  48  67 W5        29.99F
$$

TNZ012-013-036-069-073-074-260700-
CENTRAL EAST TENNESSEE

CITY           SKY/WX    TMP DP  RH WIND       PRES   REMARKS
KNOXVILLE      CLEAR     55  49  80 CALM      30.00F
OAK RIDGE      CLEAR     52  49  89 CALM      30.02F
GATLINBURG     CLEAR     50  48  93 CALM      30.00F
MORRISTOWN     CLEAR     57  50  77 SW3       30.01F
$$

TNZ083-085-099-260700-
SOUTHEAST TENNESSEE

CITY           SKY/WX    TMP DP  RH WIND       PRES   REMARKS
CHATTANOOGA    CLEAR     56  54  93 CALM      30.03S
$$

SKY/WX REPORTED AS FAIR MEANS FEW OR NO CLOUDS BELOW
12 THOUSAND FEET.




USA.gov is the U.S. government's official web portal to all federal, state and local government web resources and services.